Vorticity
nan nan nan nan nan nan nan nan nan nan nan nan nan nan nan nan nan nan nan nan nan nan nan nan nan nan nan nan nan nan nan nan nan nan nan nan nan nan nan nan nan nan nan nan nan nan nan nan nan nan nan nan nan nan nan nan nan nan nan nan nan nan nan nan nan nan nan nan nan nan nan nan nan nan nan nan nan nan nan nan nan nan nan nan nan nan
nan 10 8 9 12 12 9 7 8 9 9 7 7 7 8 8 8 7 6 6 7 8 9 8 8 7 7 5 3 5 7 7 8 11 22 26 20 14 9 7 7 7 6 6 7 7 8 8 7 7 8 8 8 8 8 8 9 10 13 16 20 23 21 15 10 6 5 5 4 3 3 4 5 6 7 8 8 8 7 7 7 7 7 7 7 nan
nan 9 8 8 10 11 9 8 8 9 9 8 7 8 8 8 8 8 7 6 7 8 8 8 8 7 7 6 3 5 7 8 8 10 19 26 24 19 11 7 7 6 6 6 7 7 7 7 8 8 8 7 7 7 7 7 8 9 11 14 17 19 18 14 11 8 6 5 4 4 4 4 5 5 6 6 6 6 6 7 7 7 7 7 7 nan
nan 8 8 8 8 9 9 9 8 9 8 8 9 10 8 7 8 8 8 7 7 8 8 8 8 8 8 6 4 3 5 8 9 9 14 22 26 25 15 8 6 6 6 6 7 7 7 7 7 7 8 8 7 7 7 7 8 9 11 12 13 13 13 11 9 8 6 5 5 5 6 6 6 6 6 6 6 6 6 7 8 8 8 8 8 nan
nan 9 9 9 9 9 9 9 9 9 8 9 10 11 10 8 8 8 8 8 8 9 9 9 9 8 7 5 3 2 5 9 10 10 11 17 24 26 19 11 7 6 6 6 7 7 7 7 7 7 7 8 7 7 7 8 9 9 10 11 11 11 10 9 8 7 6 6 7 7 7 7 7 6 5 5 5 5 6 6 7 8 9 9 9 nan
nan 10 10 10 9 9 9 9 9 9 9 10 10 11 10 9 9 9 9 8 9 9 10 10 10 9 7 3 1 3 8 11 12 13 12 15 21 25 24 17 10 7 7 6 6 6 6 6 7 7 7 7 8 8 8 9 9 9 9 10 10 10 10 10 9 8 8 8 8 9 8 7 7 6 5 5 5 5 5 5 6 6 7 8 8 nan
nan 10 9 9 9 9 9 9 10 10 10 10 10 10 9 9 9 10 10 9 9 9 10 11 12 11 8 4 4 7 10 12 14 16 15 17 21 26 28 22 12 8 7 7 6 6 6 7 7 7 8 8 8 9 9 9 9 9 9 9 9 10 11 11 11 11 11 11 10 10 9 8 8 7 7 6 6 5 5 5 5 5 6 6 6 nan
nan 9 8 9 9 10 10 11 11 11 10 9 9 9 9 10 9 10 10 9 8 9 10 12 13 12 9 6 7 10 12 13 14 16 16 19 23 27 30 25 15 10 7 7 7 7 7 7 7 8 8 9 9 9 10 10 9 9 9 9 10 10 11 12 12 13 13 12 12 11 11 10 10 10 9 9 9 9 9 8 6 6 6 5 5 nan
nan 8 9 9 9 10 10 11 11 11 10 9 9 8 9 9 9 10 9 7 8 9 10 11 11 11 8 7 7 8 10 12 12 12 15 19 23 28 31 27 18 11 8 8 8 8 7 7 8 8 9 9 10 10 10 10 10 10 10 10 10 10 10 10 11 11 11 11 11 10 10 10 10 10 10 10 11 12 12 11 10 9 8 6 6 nan
nan 9 9 9 10 10 9 9 9 9 10 11 10 10 9 9 9 9 8 7 8 9 9 9 10 10 9 7 7 7 8 8 8 8 9 14 22 32 34 27 21 15 12 10 9 9 8 8 8 8 9 9 9 9 9 9 10 10 10 11 10 10 9 8 8 8 8 8 8 8 8 7 7 7 7 8 9 9 10 11 11 10 9 8 7 nan
nan 10 10 10 10 10 9 8 8 8 11 11 10 9 10 10 9 8 8 8 8 9 9 9 10 10 9 7 7 7 9 9 7 6 5 9 18 27 29 25 22 19 14 11 11 10 9 9 9 8 8 8 8 8 8 8 9 10 11 11 11 10 9 8 7 7 7 6 6 6 5 5 4 4 4 4 5 5 6 7 8 8 9 8 8 nan
nan 10 10 10 10 10 9 9 9 9 11 10 8 7 8 10 10 9 9 9 9 8 9 10 10 10 9 8 7 8 9 10 8 7 6 7 11 16 18 18 17 15 11 8 8 8 9 8 7 7 8 8 7 7 7 8 9 10 10 10 10 9 9 8 7 7 6 6 6 5 5 4 4 4 3 3 3 3 4 5 5 6 7 7 7 nan
nan 10 10 9 10 9 9 9 9 10 11 10 9 8 9 10 11 11 11 10 9 8 9 10 10 10 9 9 8 8 9 9 9 8 8 8 9 11 12 11 10 10 9 6 6 7 8 5 4 5 7 7 7 7 7 9 10 10 9 9 9 9 8 8 8 7 7 6 6 5 5 5 4 4 3 3 4 4 4 4 5 5 6 7 7 nan
nan 9 9 9 9 10 10 9 9 9 10 10 11 11 11 10 10 11 11 9 9 9 10 10 9 8 8 9 9 10 10 9 9 9 8 8 8 10 11 11 11 11 10 9 8 9 7 4 3 5 6 6 6 6 7 8 9 9 8 8 8 7 7 7 7 7 6 6 5 5 5 5 4 4 4 4 4 4 4 5 5 5 6 7 7 nan
nan 9 9 9 9 9 10 10 10 10 9 10 10 11 11 10 10 10 10 8 8 9 10 11 11 10 9 9 9 11 12 11 11 10 9 8 8 10 12 12 12 11 11 10 9 9 7 6 7 8 7 7 7 8 8 8 9 7 6 6 6 6 6 6 5 5 5 5 4 4 4 4 4 4 4 4 4 4 5 5 5 5 6 7 7 nan
nan 10 9 8 8 9 9 10 10 10 10 10 10 10 10 9 9 9 9 9 9 9 9 11 12 12 11 9 7 9 12 13 11 10 9 7 7 9 12 13 12 11 10 9 9 8 8 10 10 10 10 11 10 9 8 8 7 6 5 5 4 4 4 4 4 4 4 4 4 4 4 4 4 4 4 4 4 4 4 4 4 5 5 6 7 nan
nan 10 9 8 8 8 10 10 11 10 10 10 10 10 10 10 9 9 9 9 9 9 9 10 10 10 10 7 5 6 11 12 11 10 9 8 7 8 11 13 11 10 9 9 9 9 9 10 10 10 12 12 9 7 7 7 6 5 4 4 4 4 3 3 3 3 3 3 3 3 4 4 4 4 4 4 4 4 4 4 4 4 5 5 6 nan
nan 9 9 9 9 9 10 10 10 10 10 9 9 9 10 10 11 11 10 10 9 9 9 9 9 8 8 6 6 6 9 11 10 10 10 8 7 8 10 12 11 10 8 8 7 8 9 10 11 11 14 12 7 5 5 5 5 4 4 3 3 3 3 3 3 3 3 3 4 4 4 5 5 5 5 4 4 3 3 3 3 3 4 5 5 nan
nan 9 9 10 10 10 10 10 10 10 10 10 9 8 8 9 10 11 11 10 10 10 9 9 9 9 9 8 7 6 9 11 11 11 10 8 7 7 10 11 11 10 8 6 6 7 8 9 12 15 16 12 8 5 4 4 4 4 4 4 4 4 4 4 4 4 4 4 4 5 5 5 5 5 5 4 4 3 3 3 3 3 4 4 5 nan
nan 9 9 10 11 10 9 10 10 11 12 12 11 9 8 9 9 9 10 10 10 10 10 9 9 9 9 8 7 7 9 12 12 12 10 8 7 7 10 12 12 10 8 7 7 8 8 8 10 13 15 15 13 10 7 4 4 4 4 5 5 5 5 5 5 5 5 5 5 5 5 5 5 5 5 5 4 4 4 4 4 4 4 4 4 nan
nan 9 9 10 11 11 9 8 8 9 13 13 11 9 9 9 9 9 10 10 10 10 9 10 10 10 10 8 7 7 10 12 12 12 10 9 8 8 9 11 12 11 9 7 8 8 9 8 8 8 12 16 16 15 12 9 7 6 6 6 6 6 6 6 6 5 5 5 5 5 5 5 5 5 5 5 5 5 5 5 5 5 5 5 5 nan
nan 11 11 10 11 11 11 9 7 8 11 12 9 8 9 9 9 9 11 11 11 10 10 10 10 10 10 9 8 8 10 11 11 10 10 9 8 8 9 11 11 12 10 8 8 8 9 10 9 8 9 11 13 14 15 14 12 10 9 9 8 8 7 7 6 6 5 5 5 5 5 5 5 6 6 6 6 5 5 5 5 6 6 6 5 nan
nan 13 11 10 10 11 10 9 7 8 10 11 10 9 10 11 11 11 12 12 12 11 11 11 11 11 10 10 9 10 10 10 10 10 10 9 8 7 8 11 11 11 10 8 9 9 10 11 10 9 9 9 10 11 12 12 13 13 13 12 11 11 10 9 8 7 6 5 5 5 5 5 6 6 6 6 6 6 6 6 6 6 6 6 6 nan
nan 12 10 9 9 9 10 9 9 9 10 11 11 12 12 13 13 14 14 13 12 12 10 10 10 10 10 11 10 9 9 10 11 12 11 10 9 7 8 10 12 12 10 8 9 9 10 11 10 10 10 11 11 10 10 10 11 11 11 12 13 13 13 12 11 9 7 6 6 6 6 6 6 6 6 6 6 6 6 6 6 7 7 7 7 nan
nan 12 11 11 11 11 11 11 11 11 11 11 11 12 12 12 12 11 11 11 11 11 10 8 8 8 9 10 9 8 8 10 12 13 12 11 9 8 8 10 11 12 10 8 8 9 11 10 10 10 10 12 12 12 12 11 10 10 9 10 10 11 13 14 14 13 10 8 7 7 7 6 6 6 6 6 6 6 7 7 7 7 7 7 8 nan
nan 15 15 15 15 14 13 12 13 14 12 10 10 10 10 9 8 7 8 8 10 10 10 8 8 8 9 8 8 8 8 9 11 12 11 10 10 9 8 10 10 11 10 9 8 9 10 10 9 9 10 11 12 13 14 14 13 12 10 9 9 9 10 12 14 15 14 12 10 8 7 7 6 6 6 6 6 7 7 7 7 7 7 9 11 nan
nan 17 16 15 14 14 13 14 14 14 13 11 10 9 7 7 7 7 7 8 10 11 10 9 8 8 9 9 9 9 8 9 10 10 10 10 10 9 8 9 9 10 11 11 10 10 10 10 9 9 8 8 8 11 13 15 16 15 14 13 11 10 9 10 11 14 17 16 14 11 8 7 6 6 6 7 7 7 8 7 7 7 9 12 16 nan
nan 13 13 13 13 13 13 13 13 13 13 14 13 9 5 6 7 8 8 9 10 11 10 10 9 9 9 9 10 10 10 10 10 10 10 10 10 9 9 9 10 11 12 12 11 10 10 10 9 9 8 7 7 8 10 14 17 18 18 16 15 14 13 12 12 13 16 18 17 15 11 8 6 6 6 7 7 8 8 7 8 9 13 16 17 nan
nan 8 8 8 8 9 10 11 13 13 13 14 14 12 10 10 10 10 11 10 10 10 10 10 10 10 9 10 11 11 11 11 11 12 11 10 10 9 9 9 10 12 12 12 11 10 10 11 10 9 8 7 8 8 8 11 15 17 17 18 18 19 17 15 14 14 15 18 19 19 16 12 10 8 7 7 8 8 8 7 8 11 18 18 14 nan
nan 2 1 1 3 5 7 9 11 12 12 11 12 13 14 14 14 13 12 10 9 10 10 9 9 9 9 10 11 11 11 11 11 13 13 11 10 9 9 9 10 11 12 12 12 10 10 11 11 10 9 8 9 10 9 9 12 13 13 15 17 18 18 17 17 16 16 17 18 19 18 17 14 12 10 9 9 9 9 8 7 9 15 13 10 nan
nan 4 2 1 2 5 7 8 7 7 7 7 7 10 14 15 15 14 12 11 10 10 10 10 10 10 9 9 9 9 9 9 10 12 13 12 11 10 10 9 9 10 11 13 12 11 10 10 10 11 10 10 11 11 10 10 10 11 11 13 14 13 13 16 17 17 17 17 17 17 18 18 17 15 14 12 11 10 10 8 6 5 8 9 7 nan
nan 8 7 6 6 8 8 8 7 6 5 4 5 7 10 13 14 14 13 12 11 11 11 11 10 10 10 9 9 8 8 8 10 10 11 12 11 11 11 10 9 9 11 14 15 12 10 8 8 9 9 10 11 11 10 10 10 10 11 13 11 7 8 13 15 16 16 16 16 17 17 18 18 18 17 16 15 13 12 10 7 3 3 7 8 nan
nan 8 8 9 9 9 9 9 9 9 8 7 7 7 8 10 12 13 13 12 12 12 11 11 10 10 10 10 9 8 8 8 10 11 11 11 10 10 10 10 9 9 10 12 14 14 12 9 8 8 8 10 10 10 9 9 9 9 11 12 11 7 6 10 13 13 13 14 15 15 16 18 19 19 19 20 19 18 17 15 10 4 -3 3 8 nan
nan 8 8 9 9 9 8 9 9 10 9 8 8 8 8 9 9 10 11 12 12 13 12 11 10 10 10 9 9 9 9 8 9 11 13 12 11 10 10 9 9 9 10 9 11 12 12 10 9 9 9 10 11 10 9 8 8 9 11 11 10 8 7 8 10 10 10 12 12 12 13 15 16 18 19 20 21 20 20 19 16 10 -0 -1 4 nan
nan 7 7 8 9 8 8 8 9 9 9 8 8 8 9 9 9 9 9 11 12 13 13 12 12 11 10 9 8 8 9 10 9 12 13 12 11 10 10 10 10 10 9 9 9 10 10 10 10 10 10 10 11 11 10 9 9 10 11 11 10 9 8 8 9 9 10 11 11 10 11 11 12 14 15 14 15 17 19 19 18 16 10 2 -0 nan
nan 7 6 8 9 9 8 8 8 8 8 8 8 9 9 9 9 9 9 10 11 12 12 12 12 12 12 10 9 8 9 10 10 11 13 13 11 10 10 11 11 10 8 9 10 10 10 10 10 10 11 11 10 10 10 9 9 11 11 11 11 10 10 10 10 10 10 9 10 10 9 10 10 11 9 8 11 14 17 18 19 18 16 9 3 nan
nan 7 7 8 9 10 9 8 9 9 9 9 10 10 10 9 9 9 9 10 10 11 11 11 11 12 13 12 11 10 10 10 10 10 12 14 12 10 11 12 12 9 8 9 10 10 9 9 9 10 11 11 8 7 6 7 9 10 10 10 10 11 11 12 11 11 10 9 9 8 9 10 10 10 8 11 16 20 22 22 22 21 19 17 13 nan
nan 7 7 8 9 10 10 9 10 11 11 11 12 12 11 10 10 10 10 10 10 11 10 9 9 10 11 12 12 11 11 11 11 10 12 13 11 11 11 12 12 10 9 12 11 9 8 8 9 10 10 10 9 7 7 8 8 9 9 10 10 10 11 12 12 11 10 9 9 9 10 10 10 10 11 16 19 20 20 21 21 21 23 25 24 nan
nan 8 8 9 10 10 10 10 11 12 14 14 14 13 11 10 10 10 10 11 10 11 10 10 9 9 10 11 12 12 12 11 11 11 11 10 10 11 11 10 11 11 11 12 12 10 10 10 10 9 9 9 10 11 11 10 9 8 9 10 12 12 12 11 11 11 10 10 10 11 11 10 10 11 12 13 14 14 14 14 15 17 20 21 24 nan
nan 9 10 11 10 10 10 10 12 13 14 13 12 10 9 9 9 10 11 11 10 10 10 10 10 11 10 10 11 12 12 13 13 12 10 9 9 10 11 11 11 11 11 11 12 11 11 10 10 10 9 9 8 8 9 10 9 7 8 10 10 9 9 9 10 11 12 11 11 11 10 9 9 10 11 11 11 11 11 11 12 13 14 13 15 nan
nan 9 11 12 12 11 10 12 14 14 13 11 8 7 7 8 9 9 10 9 8 9 10 11 12 12 11 10 10 10 11 12 12 12 11 9 9 10 11 12 11 11 10 9 10 11 10 10 9 9 10 10 9 8 9 9 9 8 8 10 9 7 6 7 10 12 12 12 12 11 9 9 10 11 11 11 11 10 9 8 8 8 11 13 13 nan
nan 9 11 12 12 12 13 13 13 12 11 10 9 8 9 9 9 9 9 8 7 9 11 11 12 12 12 10 10 9 8 9 11 13 13 11 10 10 10 11 11 10 9 8 9 10 10 10 10 10 10 10 9 9 9 10 11 11 10 9 9 9 12 14 12 11 11 11 12 12 12 11 11 11 11 11 11 11 11 9 7 6 7 10 12 nan
nan 10 12 12 13 13 13 11 10 9 9 9 9 9 9 10 10 10 10 9 8 9 11 12 12 12 12 10 9 8 8 9 10 12 14 13 10 9 10 12 12 10 8 7 8 10 11 11 11 11 11 11 10 9 8 9 11 12 12 10 9 10 13 13 11 10 10 11 12 12 13 12 11 10 11 11 11 11 12 12 13 12 11 11 12 nan
nan 11 11 11 11 11 10 9 10 11 10 9 9 8 9 10 10 10 10 10 10 10 10 10 10 9 9 9 9 8 10 10 10 11 14 16 14 10 10 11 11 11 9 7 8 9 11 11 12 12 13 11 10 9 8 8 9 10 12 12 10 8 5 5 6 6 7 10 11 12 12 11 11 11 11 12 11 11 11 13 14 15 15 14 12 nan
nan 10 10 11 10 10 10 10 11 11 11 10 9 8 9 10 10 11 11 10 10 10 10 10 8 7 7 8 10 10 11 11 11 10 10 12 15 15 13 10 9 10 10 10 10 9 8 9 11 12 13 12 11 9 8 8 8 9 11 12 11 9 6 5 6 6 7 8 10 12 12 12 11 11 11 11 11 11 11 10 10 11 11 11 12 nan
nan 9 9 10 11 12 11 10 10 10 10 9 8 8 9 10 10 11 11 10 10 10 11 11 9 8 8 9 9 9 10 10 10 10 8 7 9 12 13 12 10 9 9 9 10 10 8 9 10 10 8 8 10 12 11 10 9 9 10 12 11 11 10 11 11 11 10 10 11 12 12 12 12 11 10 10 10 11 12 12 11 10 9 9 10 nan
nan 9 9 10 11 11 11 11 11 10 9 8 8 8 9 10 10 10 10 10 10 11 12 11 10 10 9 9 9 8 9 9 9 9 9 9 9 9 10 12 12 12 11 9 9 9 9 10 9 6 4 5 7 11 14 14 13 11 10 11 11 11 11 12 13 13 12 10 10 10 11 11 11 10 10 10 10 11 12 13 13 12 11 10 10 nan
nan 9 9 9 10 10 10 10 10 10 8 7 8 9 11 11 9 7 8 10 10 11 11 10 9 9 9 10 10 9 9 9 9 10 9 9 9 10 11 12 12 13 13 13 12 12 13 12 10 6 4 4 5 7 10 13 14 12 11 11 10 10 10 10 11 12 12 11 10 10 10 9 9 9 10 10 10 10 11 11 12 13 13 12 11 nan
nan 9 9 9 9 9 9 9 9 9 8 7 8 9 12 13 10 5 6 10 11 10 9 8 7 7 8 9 10 10 9 10 10 10 10 10 10 10 10 11 12 12 12 13 15 16 18 19 17 11 6 4 4 4 7 10 12 12 11 11 11 11 11 10 11 12 12 11 11 11 10 10 11 11 11 10 9 9 9 10 11 13 13 13 12 nan
nan 10 10 10 9 9 10 10 9 9 9 9 8 9 11 12 10 8 9 11 11 10 9 9 8 7 8 9 10 10 10 9 9 10 11 11 11 11 10 11 12 12 12 12 12 14 16 19 22 23 19 10 4 2 6 9 10 11 11 11 12 12 12 11 11 12 11 11 12 12 10 10 12 12 12 11 10 10 10 10 11 11 13 14 13 nan
nan nan nan nan nan nan nan nan nan nan nan nan nan nan nan nan nan nan nan nan nan nan nan nan nan nan nan nan nan nan nan nan nan nan nan nan nan nan nan nan nan nan nan nan nan nan nan nan nan nan nan nan nan nan nan nan nan nan nan nan nan nan nan nan nan nan nan nan nan nan nan nan nan nan nan nan nan nan nan nan nan nan nan nan nan nan
CAPE
0 nan 0 nan nan 0 0 nan nan nan nan nan nan nan nan nan nan nan nan nan nan nan nan nan nan nan nan nan nan nan 0 0 1 1 2 9 12 12 9 4 4 2 0 3 3 4 4 3 3 2 2 1 2 2 5 11 11 22 40 56 56 64 66 59 59 44 31 15 14 14 14 12 9 9 5 5 6 6 7 6 6 5 2 0 0 0
nan 0 nan nan nan nan nan nan nan nan nan nan nan nan nan nan nan nan nan nan nan nan nan nan nan nan nan nan 0 0 0 0 1 1 2 5 12 12 8 5 5 3 3 4 4 3 2 1 1 1 1 nan nan nan 0 2 2 9 27 46 46 63 61 54 54 37 28 23 7 7 7 7 8 8 9 12 12 12 11 10 10 6 3 1 1 1
nan 0 0 0 0 nan nan 0 0 0 0 nan nan nan nan nan 0 0 nan 0 0 nan nan nan nan nan nan nan 1 1 0 1 1 1 2 3 14 14 9 4 4 4 4 3 3 3 1 0 0 1 0 nan nan nan 0 0 0 2 9 22 22 39 45 35 35 18 15 13 4 4 4 3 4 4 6 10 12 12 11 9 9 6 3 2 2 4
nan 0 0 0 0 0 1 0 0 0 0 0 0 0 0 nan 0 0 0 nan nan 0 0 nan nan 0 nan nan 1 1 1 1 1 1 1 4 6 6 10 5 5 2 1 0 0 0 0 0 0 nan nan nan nan nan nan nan nan nan nan 2 2 9 6 3 3 1 3 2 2 2 2 2 2 2 5 8 8 8 6 5 5 4 3 3 3 4
nan 0 0 0 0 0 1 0 nan nan 0 0 0 0 nan nan 0 0 0 0 0 nan nan nan nan nan nan 0 0 0 1 2 1 1 1 2 3 3 11 5 5 1 1 1 1 1 1 0 0 1 1 0 nan nan nan nan nan nan nan nan nan nan nan nan nan nan 0 1 1 1 1 2 2 2 3 4 4 4 2 1 1 1 1 2 2 5
nan 0 0 0 0 nan 0 0 nan nan 0 nan nan nan nan nan 0 0 0 0 0 0 nan 0 0 nan nan 0 0 0 1 1 1 1 1 1 1 1 6 4 4 3 2 2 2 1 0 0 0 0 1 0 nan nan nan nan nan nan nan nan nan nan nan nan nan nan 0 0 1 1 2 2 2 2 2 3 3 3 2 1 1 1 0 0 0 3
nan nan 0 0 0 0 0 0 0 0 0 nan nan nan nan 0 0 0 0 0 0 nan nan 0 0 nan nan nan nan nan 0 1 1 1 0 0 1 1 3 5 5 4 3 4 4 2 0 1 1 1 1 0 nan nan nan nan nan nan nan nan nan nan 0 1 1 0 1 1 1 1 1 2 2 2 1 2 3 3 3 3 3 2 0 nan nan 0
nan nan nan nan nan nan nan nan 0 0 nan nan nan nan nan nan nan nan nan nan nan nan 0 nan nan nan nan nan nan nan nan nan nan nan 0 0 1 1 0 7 7 6 5 4 4 1 1 1 1 1 1 1 0 0 0 nan nan nan nan nan nan nan nan nan nan nan nan nan nan nan nan nan nan nan nan nan nan nan nan 0 0 0 nan nan nan nan
nan nan nan nan nan nan nan nan 1 1 0 nan nan nan nan nan nan nan nan nan nan nan nan nan nan nan nan nan nan nan nan 0 0 0 1 1 0 0 2 14 14 9 5 2 2 2 1 1 1 1 1 0 0 0 nan nan nan nan nan nan nan nan nan nan nan nan nan nan nan nan nan nan nan nan nan nan nan nan nan nan nan nan nan nan nan nan
nan nan nan nan nan nan nan nan nan nan nan 0 0 0 nan nan nan nan nan nan nan nan nan nan nan nan nan nan nan nan nan nan 1 1 2 nan 0 0 0 1 1 3 2 2 2 2 1 1 1 1 1 nan nan nan nan nan nan nan nan nan nan nan nan nan nan nan nan nan nan nan nan nan nan nan nan nan nan nan nan nan nan nan nan nan nan nan
nan nan nan nan nan nan nan nan nan nan nan nan nan nan nan nan nan nan nan nan nan nan nan nan nan nan nan nan nan nan nan nan nan nan 0 nan 0 0 nan nan nan nan 0 1 1 1 1 2 2 1 0 nan nan nan nan nan nan nan nan nan nan nan nan nan nan nan nan nan nan nan nan nan nan nan nan nan nan nan nan nan nan nan nan nan nan nan
nan nan nan nan nan nan nan nan nan nan nan nan nan nan nan nan nan nan nan nan nan nan nan nan nan nan nan nan nan nan nan nan nan nan nan nan 0 0 nan nan nan nan nan 1 1 0 1 1 1 nan nan nan nan nan nan nan nan nan nan nan nan nan nan nan nan nan nan nan nan nan nan nan nan nan nan nan nan nan nan nan nan nan nan nan nan nan
nan nan nan nan nan nan nan nan nan nan nan nan nan nan nan nan nan nan nan nan nan nan nan nan nan nan nan nan nan nan nan nan nan nan nan nan nan nan nan nan nan nan nan nan nan nan 3 1 1 nan nan nan nan nan nan nan nan nan nan nan nan nan nan nan nan nan nan nan nan nan nan nan nan nan nan nan nan nan nan nan nan nan nan nan nan nan
nan nan nan nan nan nan nan nan nan nan nan nan nan nan nan nan nan nan nan nan nan nan nan nan nan nan nan nan nan nan nan nan nan nan nan nan nan nan nan nan nan nan nan nan nan nan 0 nan nan nan nan nan nan nan nan nan nan nan nan nan nan nan nan nan nan nan nan nan nan nan nan nan nan nan nan nan nan nan nan nan nan nan nan nan nan nan
nan nan nan nan nan nan nan nan nan nan nan nan nan nan nan nan nan nan nan nan nan nan nan nan nan nan nan nan nan nan nan nan nan nan nan nan nan nan nan nan nan nan nan nan nan nan nan nan nan nan nan nan nan nan nan nan nan nan nan nan nan nan nan nan nan nan nan nan nan nan nan nan nan nan nan nan nan nan nan nan nan nan nan nan nan nan
nan nan nan nan nan nan nan nan nan nan nan nan nan nan nan nan nan nan nan nan nan nan nan nan nan nan nan nan nan nan nan nan nan nan nan nan nan nan nan nan nan nan nan nan nan nan nan nan nan nan nan nan nan nan nan nan nan nan nan nan nan nan nan nan nan nan nan nan nan nan nan nan nan nan nan nan nan nan nan nan nan nan nan nan nan nan
nan nan nan nan nan nan nan nan nan nan nan nan nan nan nan nan nan nan nan nan nan nan nan nan nan nan nan nan nan nan nan nan nan nan nan nan nan nan nan nan nan nan nan nan nan nan nan nan nan nan nan nan nan nan nan nan nan nan nan nan nan nan nan nan nan nan nan nan nan nan nan nan nan nan nan nan nan nan nan nan nan nan nan nan nan nan
nan nan nan nan nan nan nan nan nan nan nan nan nan nan nan nan nan nan nan nan nan nan nan nan nan nan nan nan nan nan nan nan nan nan nan nan nan nan nan nan nan nan nan nan nan nan nan nan nan nan nan 0 0 0 nan nan nan 1 nan nan nan nan nan nan nan nan nan nan nan nan nan nan nan nan nan nan nan nan nan nan nan nan nan nan nan nan
nan nan nan nan nan nan nan nan nan nan nan nan nan nan nan nan nan nan nan nan nan nan nan nan nan nan nan nan nan nan nan nan nan nan nan nan nan nan nan nan nan nan nan nan nan nan nan nan nan nan nan 0 1 1 1 2 2 3 2 1 1 0 nan nan nan nan nan nan nan nan nan nan nan nan nan nan nan nan nan nan nan nan nan nan nan nan
nan nan nan nan nan nan nan nan nan nan nan nan nan nan nan nan nan nan 0 nan nan nan nan nan nan nan nan nan nan nan nan nan nan nan nan nan nan nan nan nan nan nan nan nan nan nan nan nan nan 0 nan nan 2 2 3 4 4 5 6 5 5 3 1 0 0 0 nan nan nan nan nan nan nan nan nan nan nan nan nan nan nan nan nan nan nan nan
nan nan nan nan nan nan nan nan nan nan nan nan nan nan nan nan nan nan nan nan nan nan nan nan nan nan nan nan nan nan nan nan nan nan nan nan nan nan nan nan nan nan nan nan nan nan nan nan nan nan nan nan nan nan 5 6 6 7 9 9 9 6 4 2 2 1 1 0 0 0 nan nan nan nan nan nan nan nan nan nan nan nan nan nan nan nan
nan nan nan nan nan nan nan nan nan nan nan nan nan nan nan nan nan nan nan nan nan nan nan nan nan nan nan nan nan nan nan nan nan nan nan nan nan nan nan nan nan nan nan nan nan nan nan nan nan nan nan nan nan nan 1 4 4 9 10 12 12 12 7 5 5 3 2 2 2 2 1 1 nan nan nan nan nan nan nan nan nan nan nan nan nan nan
nan nan nan nan nan nan nan nan nan nan nan nan nan nan nan nan nan nan nan nan nan nan nan nan nan nan nan nan nan nan nan nan nan nan nan nan nan nan nan nan nan nan nan nan nan nan nan nan nan nan nan nan nan nan nan 1 1 5 7 10 10 12 11 9 9 6 5 5 4 4 4 2 1 1 0 nan nan nan nan nan nan nan nan nan nan nan
nan nan nan nan nan nan nan nan nan nan nan nan nan nan nan nan nan nan nan nan nan nan nan nan nan nan nan nan nan nan nan nan nan nan nan nan nan nan nan nan nan nan nan nan nan nan nan nan nan nan nan nan nan nan nan nan nan 0 3 8 8 9 11 15 15 11 9 7 8 8 7 5 3 3 2 1 0 0 nan nan nan nan nan nan nan nan
nan nan nan nan nan nan nan nan nan nan nan nan nan nan nan nan nan nan nan nan nan nan nan nan nan nan nan nan nan nan nan nan nan nan nan nan nan nan nan nan nan nan nan nan nan nan nan nan nan nan nan nan nan nan nan 0 0 0 1 4 4 7 10 11 11 13 14 12 12 12 10 9 5 5 4 2 1 1 0 nan nan nan nan nan nan nan
nan nan nan nan nan nan nan nan nan nan nan nan nan nan nan nan nan nan nan nan nan nan nan nan nan nan nan nan nan nan nan nan nan nan nan nan nan nan nan nan nan nan nan nan nan nan nan nan nan nan nan nan nan nan nan nan nan nan 1 1 1 3 5 9 9 13 17 17 17 17 14 12 9 9 6 3 2 2 1 0 0 nan nan nan nan nan
nan nan nan nan nan 1 2 4 5 5 2 nan nan nan nan nan nan nan nan nan nan nan nan nan nan nan nan nan nan nan nan nan nan nan nan nan nan nan nan nan nan nan nan nan nan nan nan nan nan nan nan nan nan nan nan nan nan nan 0 0 0 1 3 6 6 12 14 17 20 20 17 16 13 13 9 6 4 4 2 1 1 nan nan nan nan nan
0 1 1 1 1 1 1 1 2 2 3 3 1 1 nan nan nan nan nan nan nan nan nan nan nan nan nan nan nan nan nan nan nan nan nan nan nan nan nan nan nan nan nan nan nan nan nan nan nan nan nan nan nan nan nan nan nan nan nan nan nan 1 2 3 3 8 14 17 19 19 20 18 17 17 12 8 7 7 4 3 3 1 0 nan nan nan
2 2 2 1 1 1 1 2 1 1 1 3 4 4 nan nan nan nan nan nan nan nan nan nan nan nan nan nan nan nan nan nan nan nan nan nan nan nan nan nan nan nan nan nan nan nan nan nan nan nan nan nan nan nan nan nan nan nan nan nan nan nan nan 2 2 4 8 15 15 15 19 19 18 18 16 12 8 8 7 5 5 4 nan nan nan nan
nan nan nan nan nan nan nan nan nan nan 0 0 nan nan nan nan nan nan nan nan nan nan nan nan nan nan nan nan nan nan nan nan nan nan nan nan nan nan nan nan nan nan nan nan nan nan nan nan nan nan nan nan nan nan nan nan nan nan nan nan nan nan nan nan nan 1 4 7 11 11 15 16 19 19 18 14 10 10 9 7 7 2 nan nan nan nan
nan nan nan nan nan nan nan nan nan nan nan nan nan nan nan nan nan nan nan nan nan nan nan nan nan nan nan nan nan nan nan nan nan nan nan nan nan nan nan nan nan nan nan nan nan nan nan nan nan nan nan nan nan nan nan nan nan nan nan nan nan nan nan nan nan nan nan 0 2 2 5 12 19 19 17 16 15 15 12 12 12 nan nan nan nan nan
nan nan nan nan nan nan nan nan nan nan nan nan nan nan nan nan nan nan nan nan nan nan nan nan nan nan nan nan nan nan nan nan nan nan nan nan nan nan nan nan nan nan nan nan nan nan nan nan nan nan nan nan nan nan nan nan nan nan nan nan nan nan nan nan nan nan nan nan nan nan nan nan nan nan 2 11 16 16 19 19 19 18 nan nan nan nan
nan nan nan nan nan nan nan nan nan nan nan nan nan nan nan nan nan nan nan nan nan nan nan nan nan nan nan nan nan nan nan nan nan nan nan nan nan nan nan nan nan nan nan nan nan nan nan nan nan nan nan nan nan nan nan nan nan nan nan nan nan nan nan nan nan nan nan nan nan nan nan nan nan nan nan 0 8 8 20 21 21 24 0 nan nan nan
nan nan nan nan nan nan nan nan nan nan nan nan nan nan nan nan nan nan nan nan nan nan nan nan nan nan nan nan nan nan nan nan nan nan nan nan nan nan nan nan nan nan nan nan nan nan nan nan nan nan nan nan nan nan nan nan nan nan nan nan nan nan nan nan nan nan nan nan nan nan nan nan nan nan nan nan nan nan 8 18 18 21 26 nan nan nan
nan nan nan nan nan nan nan nan nan nan nan nan nan nan nan nan nan nan nan nan nan nan nan nan nan nan nan nan nan nan nan nan nan nan nan nan nan nan nan nan nan nan nan nan nan nan nan nan nan nan nan nan nan nan nan nan nan nan nan nan nan nan nan nan nan nan nan nan nan nan nan nan nan nan nan nan nan nan 0 11 11 21 24 12 12 nan
nan nan nan nan nan nan nan nan nan nan nan nan nan nan nan nan nan nan nan nan nan nan nan nan nan nan nan nan nan nan nan nan nan nan nan nan nan nan nan nan nan nan nan nan nan nan nan nan nan nan nan nan nan nan nan nan nan nan nan nan nan nan nan nan nan nan nan nan nan nan nan nan nan nan nan nan nan nan nan 4 4 13 17 15 15 4
nan nan nan nan nan nan nan nan nan nan nan nan nan nan nan nan nan nan nan nan nan nan nan nan nan nan nan nan nan nan nan nan nan nan nan nan nan nan nan nan nan nan nan nan nan nan nan nan nan nan nan nan nan nan nan nan nan nan nan nan nan nan nan nan nan nan nan nan nan nan nan nan nan nan nan nan nan nan nan 0 0 1 9 9 9 10
nan nan nan nan nan nan nan nan nan nan nan nan nan nan nan nan nan nan nan nan nan nan nan nan nan nan nan nan nan nan nan nan nan nan nan nan nan nan nan nan nan nan nan nan nan nan nan nan nan nan nan nan nan nan nan nan nan nan nan nan nan nan nan nan nan nan nan nan nan nan nan nan nan nan nan nan nan nan nan nan nan nan 0 0 0 6
nan nan nan nan nan nan nan nan nan nan nan nan nan nan nan nan nan nan nan nan nan nan nan nan nan nan nan nan nan nan nan nan nan nan nan nan nan nan nan nan nan nan nan nan nan nan nan nan nan nan nan nan nan nan nan nan nan nan nan nan nan nan nan nan nan nan nan nan nan nan nan nan nan nan nan nan nan nan nan nan nan nan nan nan nan nan
nan nan nan nan nan nan nan nan nan nan nan nan nan nan nan nan nan nan nan nan nan nan nan nan nan nan nan nan nan nan nan nan nan nan nan nan nan nan nan nan nan nan nan nan nan nan nan nan nan nan nan nan nan nan nan nan nan nan nan nan nan nan nan nan nan nan nan nan nan nan nan nan nan nan nan nan nan nan nan nan nan nan nan nan nan nan
nan nan nan nan nan nan nan nan nan nan nan nan nan nan nan nan nan nan nan nan nan nan nan nan nan nan nan nan nan nan nan nan nan nan nan nan nan nan nan nan nan nan nan nan nan nan nan nan nan nan nan nan nan nan nan nan nan nan nan nan nan nan nan nan nan nan nan nan nan nan nan nan nan nan nan nan nan nan nan nan nan nan nan nan nan nan
nan nan nan nan nan nan nan nan nan nan nan nan nan nan nan nan nan nan nan nan nan nan nan nan nan nan nan nan nan nan nan nan nan nan nan nan nan nan nan nan nan nan nan nan nan nan nan nan nan nan nan nan nan nan nan nan nan nan nan nan nan nan nan nan nan nan nan nan nan nan nan nan nan nan nan nan nan nan nan nan nan nan nan nan nan nan
nan nan nan nan nan nan nan nan nan nan nan nan nan nan nan nan nan nan nan nan nan nan nan nan nan nan nan nan nan nan nan nan nan nan nan nan nan nan nan nan nan nan nan nan nan nan nan nan nan nan nan nan nan nan nan nan nan nan nan nan nan nan nan nan nan nan nan nan nan nan nan nan nan nan nan nan nan nan nan nan nan nan nan nan nan nan
nan nan nan nan nan nan nan nan nan nan nan nan nan nan nan nan nan nan nan nan nan nan nan nan nan nan nan nan nan nan nan nan nan nan nan nan nan nan nan nan nan nan nan nan nan nan nan nan nan nan nan nan nan nan nan nan nan nan nan nan nan nan nan nan nan nan nan nan nan nan nan nan nan nan nan nan nan nan nan nan nan nan nan nan nan nan
nan nan nan nan nan nan nan nan nan nan nan nan nan nan nan nan nan nan nan nan nan nan nan nan nan nan nan nan nan nan nan nan nan nan nan nan 2 2 nan nan nan nan nan nan nan nan nan nan nan nan nan nan nan nan nan nan nan nan nan nan nan nan nan nan nan nan nan nan nan nan nan nan nan nan nan nan nan nan nan nan nan nan nan nan nan nan
nan nan nan nan nan nan nan nan nan nan nan nan nan nan nan nan nan nan nan nan nan nan nan nan nan nan nan nan nan nan nan nan nan nan nan nan nan nan nan nan nan nan nan nan nan nan nan nan nan nan nan nan nan nan nan nan nan nan nan nan nan nan nan nan nan nan nan nan nan nan nan nan nan nan nan nan nan nan nan nan nan nan nan nan nan nan
nan nan nan nan nan nan nan nan nan nan nan nan nan nan nan nan nan nan nan nan nan nan nan nan nan nan nan nan nan nan nan nan nan nan nan nan nan nan nan nan nan nan nan nan nan nan nan nan nan nan nan nan nan nan nan nan nan nan nan nan nan nan nan nan nan nan nan nan nan nan nan nan nan nan nan nan nan nan nan nan nan nan nan nan nan nan
nan nan nan nan nan nan nan nan nan nan nan nan nan nan nan nan nan nan nan nan nan nan nan nan nan nan nan nan nan nan nan nan nan nan nan nan nan nan nan nan nan nan 0 nan nan nan nan nan nan nan nan nan nan nan nan nan nan nan nan nan nan nan nan nan nan nan nan nan nan nan nan nan nan nan nan nan nan nan nan nan nan nan nan nan nan nan
nan nan nan nan nan nan nan nan nan nan nan nan nan nan nan nan nan nan nan nan nan nan nan nan nan nan nan nan nan nan nan nan nan nan nan nan nan nan nan nan nan nan nan nan nan nan nan nan nan nan nan nan nan nan nan nan nan nan nan nan nan nan nan nan nan nan nan nan nan nan nan nan nan nan nan nan nan nan nan nan nan nan nan nan nan nan
nan nan nan nan nan nan nan nan nan nan nan nan nan nan nan nan nan nan nan nan nan nan nan nan nan nan nan nan nan nan nan nan nan nan nan nan nan nan nan nan nan nan nan nan nan nan nan nan nan nan 0 nan nan nan nan nan nan nan nan nan nan nan nan nan nan nan nan nan nan nan nan nan nan nan nan nan nan nan nan nan nan nan nan nan nan nan
nan nan nan nan nan nan nan nan nan nan nan nan nan nan nan nan nan nan nan nan nan nan nan nan nan nan nan nan nan nan nan nan nan nan nan nan nan nan nan nan nan nan nan nan nan nan nan nan nan nan nan 2 nan nan nan nan nan nan nan nan nan nan nan nan nan nan nan nan nan nan nan nan nan nan nan nan nan nan nan nan nan nan nan nan nan nan